Reflectivity
-20 -20 -18 5 16 20 9 28 29 32 17 16 -20 -20 -20 -20 -20 -20 -20 -20 -20 -20 -20 -20 -20 -20 -20 -20 -20 -20 -20 -20 -20 -20 -20 -20 -20 -20 -20 -20 -20 -20 -20
-20 -20 -18 4 14 16 22 16 9 37 42 28 16 8 -20 -20 -20 -20 -20 -20 -20 -20 -20 -20 -20 -20 -20 -20 -20 -20 -20 -20 -20 -20 -20 -20 -20 -20 -20 -20 -20 -20 -20
-20 -20 -15 11 -13 13 16 17 21 9 26 15 32 -8 -20 -20 -20 -20 -20 -20 -20 -20 -20 -20 -20 -20 -20 -20 -20 -20 -20 -20 -20 -20 -20 -20 -20 -20 -20 -20 -20 -20 -20
-20 -20 -20 7 15 5 1 6 23 6 23 8 9 -20 -20 -20 -20 -20 -20 -20 -20 -20 -20 -20 -20 -20 -20 -20 -20 -20 -20 -20 -20 -20 -20 -20 -20 -20 -20 -20 -20 -20 -20
-20 -20 -20 -20 3 3 -7 -3 13 3 20 22 28 -0 -19 -20 -20 -20 -20 -20 -20 -20 -20 -20 -20 -20 -20 -20 -20 -20 -20 -20 -20 -20 -20 -20 -20 -20 -20 -20 -20 -20 -20
-20 -20 -20 -20 -16 -18 9 -8 14 5 -17 -6 16 30 29 -6 -20 -20 -20 -20 -20 -20 -20 -20 -20 -20 -20 -20 -20 -20 -20 -20 -20 -20 -20 -20 -20 -20 -20 -20 -20 -20 -20
-20 -20 -20 -20 -5 -20 -5 11 9 16 20 -1 5 17 28 14 -14 -20 -20 -20 -20 -20 -20 -20 -20 -20 -20 -20 -20 -20 -20 -20 -20 -20 -20 -20 -20 -20 -20 -20 -20 -20 -20
-20 -20 -20 -20 -15 -20 -20 -17 4 -3 23 25 28 17 13 1 12 0 -20 -20 -20 -20 -20 -20 -20 -20 -20 -20 -20 -20 -20 -20 -20 -20 -20 -20 -20 -20 -20 -20 -20 -20 -20
-20 -20 -20 -20 -20 -20 -20 -7 -4 -20 8 -6 14 27 25 -16 13 0 -11 -20 -20 -20 -20 -20 -20 -20 -20 -20 -20 -20 -20 -20 -20 -20 -20 -20 -20 -20 -20 -20 -20 -20 -20
-20 -20 -20 -20 -20 -13 -20 -3 11 -18 -9 7 -3 -13 6 31 29 14 -20 -19 17 -5 -20 -20 -20 -20 -20 -20 -20 -20 -20 -20 -20 -20 -20 -20 -20 -20 -20 -20 -20 -20 -20
-20 -20 -20 -20 -20 -20 -20 -16 -6 -17 -18 -6 -10 8 1 15 -16 25 9 -20 13 15 -5 -20 -20 -20 -20 -20 -20 -20 -20 -20 -20 -20 -20 -20 -20 -20 -20 -20 -20 -20 -20
-20 -20 -20 -20 -20 -20 -20 -19 5 1 -17 -20 -18 -20 -14 2 -15 -7 -20 -20 -10 6 20 11 -12 -20 -20 -20 -20 -20 -20 -20 -20 -20 -20 -20 -20 -20 -20 -20 -20 -20 -20
-20 -20 -20 -20 -20 -20 -20 -20 -20 -8 -16 -16 -17 -7 -11 15 1 0 -20 -10 -7 15 30 30 27 11 -20 -20 -19 -20 -20 -20 -20 -14 -20 -20 -20 -20 -20 -20 -20 -20 -20
-20 -20 -20 -20 -20 -20 -20 -20 -20 -3 1 -20 -10 -12 4 -20 21 22 -10 -19 17 21 17 22 22 25 25 13 33 12 -20 -20 -20 -14 -20 -20 -20 -20 -20 -20 -20 -20 -20
-20 -20 -20 -20 -20 -20 -20 -20 -20 -18 -11 4 -2 1 -17 -0 11 13 -6 14 30 38 30 36 31 36 33 22 41 32 19 -11 -20 -20 -20 -19 -20 -20 -20 -20 -20 -20 -20
-20 -20 -20 -20 -20 -20 -20 -20 -20 -20 -2 18 -7 -20 -2 -20 16 -8 19 21 22 20 20 29 27 32 13 15 21 22 39 32 12 11 -20 -14 -11 -20 -20 -20 -20 -20 -20
-20 -20 -20 -20 -20 -20 -20 -20 -20 -20 -20 -10 11 -9 9 -20 -15 2 15 -0 9 18 24 -0 19 34 31 33 32 23 18 33 23 15 -7 -13 3 6 -20 -20 -20 -19 8
-20 -20 -20 -20 -20 -20 -20 -20 -20 -20 -20 -20 4 -7 15 13 7 7 15 14 13 15 22 15 21 11 -18 9 -2 30 28 34 10 33 26 12 25 33 10 -20 -20 -20 -20
-20 -20 -20 -20 -20 -20 -20 -20 -20 -20 -10 -19 -20 6 -15 -2 5 -1 -2 15 18 12 17 -20 -12 5 8 6 -3 30 31 22 29 7 14 12 33 32 26 12 -19 -20 2
-20 -20 -20 -20 -20 -20 -20 -20 -20 -20 -20 -20 -20 3 -20 -9 9 3 18 0 3 17 -1 1 -1 17 14 20 18 -12 -10 5 17 15 4 27 16 32 33 32 18 14 25
-20 -20 -20 -20 -20 -20 -20 -20 -20 -20 -20 -20 -20 -20 -20 -11 8 3 6 9 11 17 17 17 17 8 19 14 29 14 -20 -15 -13 7 11 22 28 26 29 33 30 32 33
-20 -20 -20 -20 -20 -20 -20 -20 -20 -12 -20 -20 -19 -2 -7 2 -7 8 8 8 5 5 17 10 14 3 13 23 19 1 8 5 -20 -3 5 17 27 26 27 27 27 26 33
-20 -20 -20 -20 -20 -20 -20 -20 -20 -20 -19 -17 -7 -14 -6 -7 -9 -1 15 9 -7 4 -18 -2 -20 -18 -6 9 -1 -1 8 -3 -14 -8 15 23 27 26 24 22 20 27 33
-20 -20 -20 -20 -20 -20 -20 -20 -20 -20 -20 -20 -20 -20 -20 3 9 5 -3 -20 -20 -20 -20 -20 -20 -20 -20 -10 -2 4 7 16 11 14 7 14 23 22 18 20 28 31 30
-20 -20 -20 -20 -20 -20 -20 -20 -20 -20 -20 -20 -20 -20 -19 -20 -7 -6 -19 -9 -17 -20 -20 -20 -20 -20 -20 -19 13 10 -17 -5 5 22 16 20 23 21 7 12 17 26 31
-20 -20 -16 -20 -20 -20 -20 -20 -20 -20 -20 -20 -20 -20 -20 -9 7 -4 -20 -19 -20 -20 -20 -20 -20 -18 -7 -20 -16 -4 6 6 12 11 7 8 15 13 11 25 18 20 22
Wind_Speed
13 11 13 16 16 15 15 12 12 6 4 7 7 9 9 8 7 6 10 12 11 12 9 7 10 8 8 9 10 8 9 7 7 7 6 5 5 4 3 4 4 5 4
15 13 15 19 17 17 15 13 16 19 11 8 7 8 8 7 7 6 8 11 12 11 10 10 9 9 8 10 10 9 8 7 8 7 6 5 4 4 4 3 4 6 4
14 16 14 18 18 18 18 15 14 18 18 13 7 6 6 6 7 8 8 9 12 12 10 10 9 9 9 9 10 10 10 8 8 8 3 4 4 8 5 5 4 6 4
12 13 17 14 18 19 18 16 12 15 16 13 8 9 9 9 8 9 8 9 11 12 10 11 10 10 7 10 9 9 8 8 9 3 3 2 4 4 5 5 5 5 6
11 12 13 16 13 14 17 16 13 16 13 16 15 12 11 9 6 8 11 11 11 12 12 12 10 10 8 9 11 11 11 8 8 7 6 4 2 3 4 6 6 4 4
5 10 11 15 14 10 11 12 15 14 15 15 14 18 19 13 10 11 10 10 10 10 12 12 11 10 9 10 10 11 12 9 8 8 8 6 4 5 3 4 8 6 6
6 8 11 13 15 14 12 11 13 13 14 16 16 15 16 17 15 13 11 12 10 10 13 14 13 11 12 10 10 10 10 9 8 9 7 7 6 3 5 3 7 6 5
4 4 8 11 15 16 15 16 16 15 15 16 15 15 15 9 10 13 10 10 10 11 12 13 13 13 13 11 11 8 8 9 7 9 7 6 6 3 4 4 7 6 4
8 4 3 8 11 15 14 16 20 19 18 18 16 16 13 14 10 12 12 9 10 9 12 14 13 13 13 12 11 8 10 10 9 8 8 6 5 5 4 4 7 5 5
5 4 3 3 9 12 16 14 15 16 16 16 15 14 16 16 14 11 12 12 11 8 12 14 14 13 12 12 12 9 10 10 8 7 9 8 6 6 5 4 5 5 3
6 5 3 3 4 9 12 15 14 14 13 14 13 12 12 15 15 13 12 12 11 12 10 12 14 14 14 13 13 12 11 12 11 10 10 10 8 6 6 6 5 4 3
4 3 4 4 3 5 11 14 14 14 14 13 12 11 10 11 13 13 13 12 12 8 12 13 13 13 13 13 14 13 12 13 12 11 10 11 8 9 7 6 7 6 5
4 5 2 4 4 5 6 9 9 11 12 12 11 13 12 12 13 13 12 11 12 13 12 11 13 13 13 14 14 15 14 13 13 12 12 11 12 11 8 7 7 5 4
5 6 5 4 5 4 6 7 8 8 9 10 11 12 14 15 14 14 13 13 12 11 12 14 15 15 12 12 12 14 14 14 13 13 13 13 13 13 12 10 8 6 5
5 4 5 5 5 5 5 6 7 8 8 9 11 11 12 12 13 12 13 12 12 15 13 14 12 12 11 11 12 13 14 13 12 11 12 13 13 15 12 9 10 11 8
7 2 4 6 5 5 5 3 5 6 5 10 11 11 12 13 14 13 12 12 10 11 10 11 12 13 10 15 22 13 12 10 13 13 11 10 10 13 14 14 12 11 12
6 4 4 5 5 5 5 4 3 4 3 2 5 8 9 9 11 11 9 11 12 11 12 11 8 11 11 14 14 13 7 8 7 10 11 9 6 9 9 12 10 11 9
6 2 3 3 4 4 3 3 2 2 1 2 3 3 4 6 7 9 11 10 9 11 10 12 13 12 10 17 21 20 12 11 11 10 10 10 8 10 10 10 9 8 6
4 4 4 3 3 5 4 4 5 4 3 3 5 4 1 2 4 6 7 7 7 7 8 6 7 9 7 13 15 17 11 9 10 11 12 14 14 15 17 11 11 9 6
5 7 7 6 6 6 5 7 7 7 8 7 5 5 4 3 3 3 3 2 3 4 4 4 6 7 6 14 16 17 8 9 8 11 11 18 15 23 20 12 12 11 8
9 11 11 10 8 7 8 10 9 9 7 7 6 7 7 6 5 4 3 3 4 5 4 4 3 3 4 5 15 19 8 8 8 8 8 8 18 23 22 16 11 10 10
12 13 12 11 9 9 10 11 11 5 5 6 7 7 5 3 4 6 5 5 5 5 4 4 3 2 3 6 15 20 13 11 8 6 6 7 18 19 21 16 16 14 14
13 13 12 13 13 13 12 13 10 8 9 9 9 8 8 8 7 7 5 5 4 3 3 3 2 1 1 1 6 13 11 7 3 4 7 11 14 15 14 13 15 14 8
14 13 14 14 15 14 14 13 10 10 10 11 10 8 8 7 7 5 5 5 5 5 4 4 3 2 2 2 2 4 6 10 6 10 8 10 11 11 8 10 10 8 7
14 14 14 15 16 15 15 14 13 11 11 11 9 8 7 7 8 9 8 6 8 7 5 4 4 3 3 1 2 5 4 5 7 7 4 3 4 6 6 6 7 6 6
13 14 15 15 15 15 14 13 14 13 12 11 9 8 7 6 6 5 8 17 16 18 18 19 13 4 7 5 2 7 10 12 15 4 3 3 3 4 5 7 7 7 9
Wind_Direction
227 196 181 171 180 180 204 179 154 159 122 188 168 171 170 171 166 175 176 174 174 177 173 161 169 167 166 164 164 157 156 149 155 135 127 124 134 138 133 145 134 144 143
213 182 187 181 176 184 193 177 179 156 165 201 188 183 166 168 162 171 178 180 174 178 180 169 171 175 171 168 167 166 160 155 165 157 148 150 153 169 171 166 161 158 150
219 183 194 174 178 185 186 194 193 161 161 180 193 172 151 149 168 178 186 189 179 176 185 177 175 179 175 172 173 172 173 164 183 177 193 153 174 149 172 179 183 162 178
224 203 186 172 187 190 188 195 179 155 162 164 175 170 185 178 188 186 181 179 183 178 187 181 183 182 176 175 175 179 176 170 182 212 156 354 107 184 162 179 187 184 178
206 208 188 174 194 183 188 189 179 164 179 181 176 165 202 196 180 180 174 179 188 185 186 184 186 183 184 182 179 179 184 192 180 185 169 193 166 288 137 161 173 189 193
193 202 207 175 181 188 185 181 190 178 175 187 187 180 189 189 190 179 183 186 185 186 188 187 187 185 185 189 185 184 189 193 190 185 180 183 171 184 182 135 164 185 179
185 191 205 189 169 175 178 174 175 188 188 185 193 213 201 189 192 181 185 180 185 191 193 190 189 186 184 188 189 185 193 194 194 187 193 198 202 184 195 160 156 174 153
149 198 214 215 179 180 176 178 181 182 190 197 197 198 205 217 189 191 189 187 193 194 190 194 191 190 184 186 190 188 194 197 198 200 207 200 197 170 204 174 153 150 156
102 81 235 235 216 167 184 192 194 184 185 193 200 200 206 208 208 194 194 192 196 197 189 192 197 193 187 187 187 191 191 193 197 204 202 202 199 171 187 195 166 164 170
70 73 100 231 234 196 187 199 204 205 189 194 198 201 198 203 208 210 197 193 195 203 191 188 195 196 189 189 188 195 194 198 193 195 201 202 199 185 187 190 184 210 194
31 6 23 144 229 225 199 195 197 200 204 182 190 204 199 205 205 206 200 195 192 201 197 194 194 192 192 192 191 195 188 203 198 193 193 200 202 191 190 179 191 187 200
25 51 37 357 305 231 215 198 198 198 208 205 192 194 202 212 210 205 200 199 199 194 202 197 191 198 194 190 192 196 193 195 205 198 194 198 192 191 190 192 191 188 185
5 354 330 343 318 283 256 243 208 204 201 204 199 189 205 204 211 208 199 198 202 198 192 193 195 196 199 193 199 198 193 190 189 199 198 200 192 195 187 184 193 189 178
329 319 322 342 338 301 284 264 237 188 198 193 204 201 195 203 205 207 199 196 197 201 198 199 201 199 199 202 208 208 199 188 194 194 199 196 195 194 190 183 181 174 166
303 328 322 328 330 309 274 267 263 220 193 192 205 210 193 192 206 210 199 201 196 202 197 200 200 199 187 194 201 206 210 201 185 202 189 203 199 188 185 181 179 170 169
304 309 317 317 331 330 304 279 277 249 182 203 205 209 196 195 202 202 194 197 198 199 198 190 196 202 198 190 195 185 205 209 185 190 196 192 182 181 173 171 179 177 174
308 328 309 321 331 351 343 314 322 286 251 283 212 212 209 189 192 205 197 192 192 194 196 202 178 196 200 182 173 191 188 214 213 196 187 176 172 177 184 162 164 172 185
307 37 5 321 337 346 3 351 351 61 171 340 355 190 205 194 182 193 193 192 188 192 191 205 193 199 195 183 191 191 197 194 176 187 173 160 158 176 180 167 168 165 165
75 86 79 47 18 14 15 48 65 63 76 62 44 354 351 204 192 190 188 192 187 185 197 187 183 200 197 183 195 167 195 199 185 194 177 165 157 182 173 160 175 163 156
101 103 94 79 58 39 51 69 60 56 47 31 48 29 25 56 67 99 110 96 127 159 147 151 187 196 198 182 193 184 182 198 202 177 191 181 167 171 171 164 166 162 155
104 93 81 71 54 55 72 74 61 48 37 51 47 54 45 55 64 59 31 67 86 94 98 126 138 145 185 173 192 190 178 195 205 172 175 183 176 173 172 167 170 155 145
92 83 82 74 60 64 73 72 65 62 54 52 48 40 54 73 108 101 85 72 76 78 84 91 83 100 147 183 194 191 192 193 177 179 175 170 175 173 173 164 153 150 149
87 85 82 74 60 51 55 64 58 64 74 72 61 50 52 39 32 68 75 85 91 110 110 92 93 76 26 115 190 186 177 166 134 126 149 154 167 169 172 163 151 167 167
76 77 74 68 61 51 48 38 50 59 69 68 60 57 48 48 53 41 38 63 61 63 51 39 60 68 43 44 128 146 143 144 127 140 147 160 166 170 160 165 168 174 173
65 65 65 61 56 50 47 37 37 52 61 61 56 54 47 53 67 57 27 60 47 37 51 49 49 41 65 58 99 143 141 130 129 109 103 142 159 169 161 162 170 176 170
64 65 63 55 51 44 42 42 36 42 51 53 45 38 45 40 42 71 64 52 63 59 56 48 40 60 44 52 112 135 134 138 139 107 136 154 162 171 172 161 170 184 180